Regional Weather Roundup
Issued by NWS

Home | Current Version | Previous Version | Text Only | Print | Product List | Glossary On
Versions: 1 2 3 4 5 6 7 8 9 10 11 12 13 14 15 16 17 18 19 20 21 22 23 24 25 26 27 28 29 30 31 32 33 34 35 36 37 38 39 40 41 42 43 44 45 46 47 48 49 50
000
ASHW40 PHFO 261443
RWRHI

WEATHER ROUNDUP FOR HAWAII
NATIONAL WEATHER SERVICE HONOLULU HI
400 AM HST TUE MAY 26 2015

THIS IS AN AUTOMATED REPORT THAT HAS NOT BEEN QUALITY CONTROLLED.

NOTE..."FAIR" INDICATES FEW OR NO CLOUDS BELOW 12,000 FEET WITH NO
SIGNIFICANT WEATHER AND/OR OBSTRUCTIONS TO VISIBILITY.

* - THESE SITES REPORT LIMITED FIELDS

HIZ001>004-261500-
KAUAI-NIIHAU-

CITY           SKY/WX    TMP DP  RH WIND       PRES   REMARKS
LIHUE APT      PTCLDY    63  57  80 W6        29.95S
PORT ALLEN*    NOT AVBL
POIPU*           N/A     66 N/A N/A NW3         N/A
PRINCEVILLE*     N/A     66 N/A N/A MISG        N/A
KOKOLE POINT*  NOT AVBL
MOLOAA DAIRY*  NOT AVBL
WAIMEA HTS*      N/A     70  54  56 VRB3        N/A
PUU OPAE*        N/A     61  50  67 NE2         N/A
PUU LUA*       NOT AVBL
MAKAHA RIDGE*    N/A     61  57  88 E2          N/A
$$

HIZ005>011-261500-
OAHU-

CITY           SKY/WX    TMP DP  RH WIND       PRES   REMARKS
HONOLULU       MOCLDY    71  63  75 N3        29.92S
KALAELOA       CLOUDY    70  61  73 VRB3      29.93F
KANEOHE MCB    CLOUDY    70  65  84 SW3       29.91S
WHEELER FIELD  CLOUDY    66  61  86 NW3       29.92S
BELLOWS*         N/A    N/A N/A N/A W3          N/A
KAHUKU*          N/A    N/A N/A N/A E1          N/A
WHEELER*       NOT AVBL
WAIANAE HARBOR NOT AVBL
DILLINGHAM*      N/A     70  59  68 MISG        N/A
KAHUKU TRN*      N/A     64  63  94 SE1         N/A
KAWAILOA*        N/A     64  57  77 E6          N/A
KII*             N/A     68  64  88 CALM        N/A
MAKUA RANGE*     N/A     72  57  60 E6          N/A
OAHU FOREST NW   N/A     61  14  16 CALM        N/A
SCHOFIELD BRK*   N/A     63  59  88 MISG        N/A
SCHOFIELD S*   NOT AVBL
WAIANAE VLY*     N/A     81  77  89 MISG        N/A
KUAOKALA*        N/A     68  59  73 NE13        N/A
HONOULIUULI*   NOT AVBL
MOKUOLOE IS*     N/A    N/A N/A N/A MISG        N/A
PALEHUA*         N/A     63  55  77 NW3         N/A
WAIAWA PHB*    NOT AVBL
$$

HIZ012>013-261500-
MOLOKAI-

CITY           SKY/WX    TMP DP  RH WIND       PRES   REMARKS
MOLOKAI AIRPT  CLOUDY    65  64  97 N5        29.93F
KALAUPAPA      NOT AVBL
MAKAPULAPAI*     N/A     64  59  82 S3          N/A
MOLOKAI 1*       N/A     73  66  78 CALM        N/A
PUU ALII*        N/A     51  51 100 CALM        N/A
$$

HIZ016-261500-
KAHOOLAWE-

CITY           SKY/WX    TMP DP  RH WIND       PRES   REMARKS
KAHOOLAWE*       N/A     63 N/A N/A NE7         N/A
HAKIOAWA*        N/A     65  63  92 MISG      30.35S
HONOKANAIA*      N/A     69  61  76 N9G15     29.94S
KANELOA*         N/A     70  63  78 N9        29.99S
KEALIALALO*      N/A     64  61  88 E6        29.93S
LUA MAKIKA*    NOT AVBL
$$

HIZ014>015-261500-
LANAI-

CITY           SKY/WX    TMP DP  RH WIND       PRES   REMARKS
LANAI CITY     FAIR      61  58  90 NE5       29.96F
LANAI 1*         N/A     64  61  88 E10         N/A
$$

HIZ017>028-261500-
MAUI-

CITY           SKY/WX    TMP DP  RH WIND       PRES   REMARKS
KAHULUI        PTCLDY    63  61  93 CALM      29.93S
KAPALUA-W MAUI NOT AVBL
HANA AIRPORT   CLEAR     61  61 100 CALM      29.95S
HANA*            N/A     64 N/A N/A S3          N/A
HALEAKALA SUMM NOT AVBL
MAALAEA BAY*   NOT AVBL
HALEAKALA*     NOT AVBL
KAUPO GAP*       N/A     57  52  82 N7          N/A
KULA 1*          N/A     50  43  76 S13G23      N/A
$$

HIZ023>026-261500-
BIG ISLAND OF HAWAII COAST AND LOWER SLOPES-

CITY           SKY/WX    TMP DP  RH WIND       PRES   REMARKS
KAILUA KONA    LGT RAIN  76  64  66 SE5       29.90S
HILO           CLOUDY    69  63  81 SW3       29.92S
HONOKAA*       NOT AVBL
KAWAIHAE MWT*    N/A     75 N/A N/A E3          N/A
KAWAIHAE*        N/A     75 N/A N/A SE3         N/A
SOUTH POINT*     N/A     66 N/A N/A N7          N/A
UPOLU AIRPORT*   N/A    N/A N/A N/A E7          N/A
KAMUELA*       CLOUDY    59  57  94 CALM      30.01S
HAKALAU*         N/A     39  39 100 W3          N/A
KALOKO-HONOKO*   N/A     75  63  64 E3        29.89S
PALI 2*          N/A     61  59  94 W1          N/A
KEALAKOMO*       N/A     72  59  64 VRB2        N/A
KAUPULEHU*       N/A     68  57  68 SE6         N/A
KAPAPALA*        N/A     63  62  97 NW2         N/A
LOWER KAHUKU*    N/A     55  55 100 N2          N/A
PUHE CS*         N/A     75  57  53 E3          N/A
PUHO CS*         N/A     70  60  70 E3          N/A
PTA KEAMUKU*     N/A     57  55  94 CALM        N/A
WAIKOLOA*        N/A     68  59  73 E3          N/A
$$

HIZ027>028-261500-
BIG ISLAND OF HAWAII INTERIOR AND SUMMMITS-

CITY           SKY/WX    TMP DP  RH WIND       PRES   REMARKS
BRADSHAW FIELD CLOUDY    52  45  78 NW6       30.19F
MK VISITOR CEN NOT AVBL
MAUNA KEA*       N/A     37   3  23 NW12        N/A  WCI  30
MAUNA LOA*       N/A     45  14  29 MISG        N/A
MAUNA LOA 1*   NOT AVBL
PTA KIPUKA*      N/A     52  52 100 S5G10       N/A
PTA RANGE 17*    N/A     50  46  87 E2          N/A
PTA WEST*        N/A     66  64  94 E3          N/A
NENE CABIN*      N/A     50  43  76 NW8G16      N/A
AHUMOA*          N/A     52  47  83 S15G26      N/A
PTA PORTABLE*  NOT AVBL
PUU MALI*        N/A     45  41  87 SW5G10      N/A
$$

HIC003-261500-
NORTHWEST ISLANDS-

CITY           SKY/WX    TMP DP  RH WIND       PRES   REMARKS
MIDWAY ISLAND  CLEAR    N/A N/A N/A S3        30.17S
MIDWAY NOS*    NOT AVBL
FRENCH FRIGATE NOT AVBL
$$

PHZ110>124-180-261500-
BUOY REPORTS

STATION/POSITION TIME  TEMP    WIND        PRES    WAVE   SWELL
                       AIR SEA DIR/SP/G            HT/PER HT/DIR
                 (UTC) (F)     (DEG/KT/KT) (MB)    (FT/S) (FT/D)
BUOY 51001       NOT AVBL
BUOY 51101       1400   72 75   50/ 14/ 17 1014.8F   6/12   5/290
BUOY 51100       NOT AVBL
BUOY 51002       1400   76 78   60/  4/  6 1012.5S   6/15   5/190
BUOY 51003       1400   75 79   40/ 10/ 12 1013.4F   6/13   5
BUOY 51004       1349   76 78   80/  8/ 10 1012.7S   6/16   7/200
BARBERS PT BUOY  NOT AVBL
WAIMEA BAY BUOY  1400      77                N/A     5/ 8   2/300
KAILUA BAY BUOY  1400      77                N/A     4/ 8   2/130
LANAI BUOY       NOT AVBL
BARBERS PT 2     1400      76                N/A     4/13   3/190
PAUWELA MAUI     1400      77                N/A     5/ 9   2/320
HILO             1400      77                N/A     5/ 9   2/ 10
KANEOHE BAY BUOY 1400      76                N/A     4/ 8   2/ 10
HANALEI KAUAI    1400      78                N/A     6/ 9   2/310
KAHULUI HARBOR   1400   67 78  220/  2/  2 1013.1R
HONOLULU HARBOR  1400   72 76   60/  1/  3 1013.2S
KILO NALU        NOT AVBL
HILO HARBOR      1400   70 77  210/  3/  3 1012.7F
MOKUOLOE         1400      78              1013.4F
NAWILIWILI       1400   62 78  260/  7/  8 1013.7S
WHOTS BUOY       NOT AVBL
BUOY 51028       NOT AVBL
$$

......................KEY........................................
  SKY/WX - SKY CONDITIONS/PRESENT WEATHER
  TMP    - TEMPERATURE IN FAHRENHEIT
  DWPT   - DEWPOINT IN FAHRENHEIT
  RH     - RELATIVE HUMIDITY IN PERCENT
  WIND   - DIRECTION AND SPEED /MPH FOR ISLANDS...KTS FOR BUOYS/
  PRES   - MEAN SEA LEVEL PRESSURE IN INCHES OF HG
  VSB    - VISIBILITY IN MILES
  HX     - HEAT INDEX
  WCI    - WIND CHILL INDEX
  VRB    - VARIABLE WIND DIRECTION
  N/A    - NOT AVAILABLE


USA.gov is the U.S. government's official web portal to all federal, state and local government web resources and services.